Home > Weather > Porsgrunn > Past weeks

Flag for Norway Past Weather in Porsgrunn, Norway — Yesterday and Last 2 Weeks

Now
61 °F

Cool.


Feels Like: 61 °F
Forecast: 56 / 72 °F
Wind: 8 mph from South

Location: Jomfruland Fyr

Current Time: Jul 28, 2016 at 1:05:23 AM

Latest Report: Jul 28, 2016 at 12:00 AM


Visibility: N/A

Pressure: 29.76 "Hg

Humidity: 91%

Dew Point: 58 °F

Location of PorsgrunnLocation

Past Weather in Porsgrunn — Graph

°F

Porsgrunn Temperature Yesterday

Maximum temperature yesterday: 67 °F (at 3:00 PM)
Minimum temperature yesterday: 58 °F (at 5:00 AM)
Average temperature yesterday: 62 °F

High & Low Weather Summary for the Past Weeks

 TemperatureHumidityPressure
High73 °F (Jul 24, 3:00 PM)95% (Jul 19, 4:00 AM)30.15 "Hg (Jul 19, 4:00 AM)
Low54 °F (Jul 17, 6:00 AM)38% (Jul 16, 7:00 PM)29.58 "Hg (Jul 12, 11:00 PM)
Average64 °F80%29.96 "Hg
* Reported Jul 12 11:00 PM — Jul 27 11:00 PM, Porsgrunn, Weather by CustomWeather, © 2016

Note: Actual official high and low records may vary slightly from our data, if they occured in-between our weather recording intervals... More about our weather records

Advertising

Porsgrunn Weather History for the Previous 24 Hours

Scroll right to see more
 ConditionsComfort  
Time TempWeatherWind HumidityBarometerVisibility
11:00 PM
Wed, Jul 27
62 °FCool.6 mph89%29.78 "HgN/A
10:00 PM62 °FCool.7 mph89%29.80 "HgN/A
9:00 PM63 °FMild.6 mph84%29.82 "HgN/A
8:00 PM64 °FMild.6 mph87%29.83 "HgN/A
7:00 PM64 °FMild.5 mph83%29.85 "HgN/A
6:00 PM65 °FMild.5 mph78%29.87 "HgN/A
5:00 PM65 °FMild.5 mph79%29.89 "HgN/A
4:00 PM65 °FMild.7 mph79%29.91 "HgN/A
3:00 PM67 °FMild.8 mph74%29.92 "HgN/A
2:00 PM65 °FMild.8 mph78%29.94 "HgN/A
1:00 PM64 °FMild.7 mph75%29.95 "HgN/A
12:00 PM64 °FMild.7 mph76%29.96 "HgN/A
11:00 AM60 °FCool.3 mph85%29.98 "HgN/A
10:00 AM63 °FMild.5 mph76%29.97 "HgN/A
9:00 AM63 °FMild.5 mph74%29.97 "HgN/A
8:00 AM61 °FCool.7 mph78%29.97 "HgN/A
7:00 AM59 °FCool.6 mph82%29.97 "HgN/A
6:00 AM58 °FCool.7 mph82%29.97 "HgN/A
5:00 AM58 °FCool.8 mph81%29.97 "HgN/A
4:00 AM58 °FCool.7 mph80%29.98 "HgN/A
3:00 AM60 °FCool.8 mph79%29.97 "HgN/A
2:00 AM60 °FCool.7 mph77%29.96 "HgN/A
1:00 AM61 °FCool.6 mph75%29.97 "HgN/A
Weather by CustomWeather, © 2016

See weather overviewHow to use our weather pages